| time (UTC) | temp F | wind direction | speed MPH | gust MPH | rain 1hr in | rain 24hr in | rain mn in | humidity % | barometer mb |
| 20260904010106 | 68 | 155 | 0.0 | 5.0 | 0.01 | 1.55 | 1.55 | 95 | 1013.9 |
| 20260904004604 | 68 | 176 | 2.0 | 4.0 | 0.02 | 1.55 | 1.55 | 95 | 1014.0 |
| 20260904003108 | 68 | 169 | 1.0 | 4.0 | 0.02 | 1.55 | 1.55 | 95 | 1013.8 |
| 20260904001607 | 69 | 166 | 1.0 | 2.0 | 0.04 | 1.55 | 1.55 | 95 | 1014.1 |
| 20260904000106 | 69 | 0 | 0.0 | 0.0 | 0.06 | 1.54 | 1.54 | 95 | 1014.1 |
| 20260903234616 | 69 | 0 | 0.0 | 1.0 | 0.13 | 1.53 | 1.53 | 95 | 1014.9 |
| 20260903233106 | 69 | 0 | 0.0 | 1.0 | 0.42 | 1.53 | 1.53 | 95 | 1015.5 |
| 20260903231608 | 69 | 0 | 0.0 | 5.0 | 1.08 | 1.51 | 1.51 | 94 | 1016.2 |
| 20260903230108 | 69 | 56 | 3.0 | 8.0 | 1.36 | 1.48 | 1.48 | 94 | 1016.8 |
| 20260903224602 | 69 | 51 | 2.0 | 10.0 | 1.36 | 1.40 | 1.40 | 94 | 1016.9 |
| 20260903223103 | 69 | 66 | 4.0 | 9.0 | 1.10 | 1.10 | 1.10 | 92 | 1016.6 |
| 20260903221607 | 72 | 331 | 9.0 | 17.0 | 0.42 | 0.42 | 0.42 | 86 | 1016.6 |
| 20260903220122 | 77 | 46 | 2.0 | 6.0 | 0.12 | 0.12 | 0.12 | 87 | 1013.6 |
| 20260903214605 | 80 | 342 | 2.0 | 5.0 | 0.04 | 0.04 | 0.04 | 79 | 1013.2 |
| 20260903213112 | 83 | 301 | 1.0 | 5.0 | 0.00 | 0.00 | 0.00 | 76 | 1013.9 |
| 20260903211606 | 84 | 0 | 0.0 | 3.0 | 0.00 | 0.00 | 0.00 | 73 | 1013.1 |
| 20260903210115 | 85 | 319 | 1.0 | 4.0 | 0.00 | 0.00 | 0.00 | 72 | 1012.5 |
| 20260903204603 | 86 | 0 | 0.0 | 3.0 | 0.00 | 0.00 | 0.00 | 70 | 1011.8 |
| 20260903203104 | 86 | 0 | 0.0 | 4.0 | 0.00 | 0.00 | 0.00 | 72 | 1012.2 |
| 20260903201603 | 86 | 4 | 1.0 | 6.0 | 0.00 | 0.00 | 0.00 | 73 | 1012.1 |
| 20260903200104 | 86 | 15 | 1.0 | 6.0 | 0.00 | 0.00 | 0.00 | 73 | 1012.1 |
| 20260903194605 | 84 | 290 | 2.0 | 8.0 | 0.00 | 0.00 | 0.00 | 78 | 1012.5 |
| 20260903193107 | 83 | 70 | 1.0 | 11.0 | 0.00 | 0.00 | 0.00 | 78 | 1012.7 |
| 20260903191604 | 86 | 77 | 6.0 | 13.0 | 0.00 | 0.00 | 0.00 | 73 | 1012.7 |
| 20260903190105 | 93 | 314 | 2.0 | 7.0 | 0.00 | 0.00 | 0.00 | 61 | 1012.8 |
| 20260903184605 | 93 | 266 | 3.0 | 6.0 | 0.00 | 0.00 | 0.00 | 63 | 1013.3 |
| 20260903183106 | 93 | 162 | 2.0 | 6.0 | 0.00 | 0.00 | 0.00 | 64 | 1013.2 |
| 20260903181604 | 93 | 333 | 2.0 | 8.0 | 0.00 | 0.00 | 0.00 | 66 | 1013.5 |
| 20260903174601 | 90 | 333 | 2.0 | 7.0 | 0.00 | 0.00 | 0.00 | 68 | 1013.8 |
| 20260903173106 | 92 | 359 | 1.0 | 4.0 | 0.00 | 0.00 | 0.00 | 68 | 1014.0 |
| 20260903171626 | 91 | 231 | 2.0 | 5.0 | 0.00 | 0.00 | 0.00 | 68 | 1014.2 |
| 20260903170104 | 91 | 317 | 1.0 | 4.0 | 0.00 | 0.00 | 0.00 | 70 | 1014.3 |
| 20260903164609 | 89 | 314 | 2.0 | 6.0 | 0.00 | 0.00 | 0.00 | 73 | 1014.3 |
| 20260903163106 | 87 | 218 | 1.0 | 3.0 | 0.00 | 0.00 | 0.00 | 73 | 1014.6 |
| 20260903161609 | 87 | 131 | 1.0 | 4.0 | 0.00 | 0.00 | 0.00 | 73 | 1014.8 |
| 20260903160106 | 86 | 204 | 2.0 | 6.0 | 0.00 | 0.00 | 0.00 | 75 | 1014.6 |
| 20260903154607 | 85 | 190 | 2.0 | 4.0 | 0.00 | 0.00 | 0.00 | 75 | 1014.7 |
| 20260903153104 | 86 | 0 | 0.0 | 6.0 | 0.00 | 0.00 | 0.00 | 77 | 1014.7 |
| 20260903151607 | 85 | 214 | 0.0 | 6.0 | 0.00 | 0.00 | 0.00 | 77 | 1014.7 |
| 20260903144601 | 83 | 157 | 1.0 | 7.0 | 0.00 | 0.00 | 0.00 | 79 | 1014.8 |
| 20260903143112 | 82 | 173 | 2.0 | 7.0 | 0.00 | 0.00 | 0.00 | 79 | 1014.8 |
| 20260903141604 | 82 | 189 | 2.0 | 5.0 | 0.00 | 0.00 | 0.00 | 79 | 1015.0 |
| 20260903140106 | 81 | 172 | 1.0 | 6.0 | 0.00 | 0.00 | 0.00 | 80 | 1014.6 |
| 20260903134604 | 80 | 236 | 1.0 | 3.0 | 0.00 | 0.00 | 0.00 | 83 | 1014.7 |
| 20260903133113 | 78 | 0 | 1.0 | 2.0 | 0.00 | 0.00 | 0.00 | 85 | 1014.9 |
| 20260903131611 | 76 | 166 | 1.0 | 2.0 | 0.00 | 0.00 | 0.00 | 86 | 1014.9 |
| 20260903130126 | 75 | 169 | 1.0 | 2.0 | 0.00 | 0.00 | 0.00 | 87 | 1015.1 |
| 20260903124603 | 73 | 0 | 1.0 | 3.0 | 0.00 | 0.00 | 0.00 | 88 | 1015.2 |
| 20260903123126 | 72 | 155 | 0.0 | 2.0 | 0.00 | 0.00 | 0.00 | 88 | 1015.1 |
| 20260903121611 | 71 | 170 | 1.0 | 4.0 | 0.00 | 0.00 | 0.00 | 88 | 1014.9 |
| 20260903120119 | 71 | 221 | 2.0 | 4.0 | 0.00 | 0.00 | 0.00 | 88 | 1014.8 |
| 20260903114614 | 70 | 184 | 2.0 | 7.0 | 0.00 | 0.00 | 0.00 | 88 | 1015.0 |
| 20260903113104 | 71 | 220 | 2.0 | 6.0 | 0.00 | 0.00 | 0.00 | 88 | 1015.2 |
| 20260903111608 | 71 | 224 | 2.0 | 4.0 | 0.00 | 0.00 | 0.00 | 88 | 1015.3 |
| 20260903110106 | 72 | 173 | 2.0 | 4.0 | 0.00 | 0.00 | 0.00 | 86 | 1014.7 |
| 20260903104604 | 73 | 117 | 0.0 | 3.0 | 0.00 | 0.00 | 0.00 | 84 | 1015.5 |
| 20260903103104 | 73 | 86 | 0.0 | 3.0 | 0.00 | 0.00 | 0.00 | 84 | 1015.4 |
| 20260903101608 | 74 | 27 | 2.0 | 5.0 | 0.00 | 0.00 | 0.00 | 83 | 1015.2 |
| 20260903094611 | 75 | 65 | 1.0 | 9.0 | 0.00 | 0.00 | 0.00 | 82 | 1014.8 |
| 20260903093119 | 74 | 0 | 0.0 | 0.0 | 0.00 | 0.00 | 0.00 | 85 | 1014.4 |
| 20260903091608 | 73 | 0 | 0.0 | 0.0 | 0.00 | 0.00 | 0.00 | 84 | 1013.9 |
| 20260903084601 | 73 | 0 | 0.0 | 0.0 | 0.00 | 0.00 | 0.00 | 84 | 1013.8 |
| 20260903083109 | 74 | 0 | 0.0 | 0.0 | 0.00 | 0.00 | 0.00 | 83 | 1013.6 |
| 20260903081600 | 74 | 0 | 0.0 | 0.0 | 0.00 | 0.00 | 0.00 | 83 | 1013.6 |
| 20260903080108 | 74 | 0 | 0.0 | 0.0 | 0.00 | 0.00 | 0.00 | 83 | 1013.7 |
| 20260903074601 | 74 | 0 | 0.0 | 0.0 | 0.00 | 0.00 | 0.00 | 83 | 1014.0 |
| 20260903073107 | 74 | 0 | 0.0 | 0.0 | 0.00 | 0.00 | 0.00 | 82 | 1014.3 |
| 20260903071605 | 74 | 0 | 0.0 | 0.0 | 0.00 | 0.00 | 0.00 | 82 | 1013.8 |
| 20260903070105 | 75 | 0 | 0.0 | 0.0 | 0.00 | 0.00 | 0.00 | 80 | 1014.2 |
| 20260903064608 | 76 | 0 | 0.0 | 0.0 | 0.00 | 0.00 | 0.00 | 78 | 1014.4 |
| 20260903063104 | 77 | 0 | 0.0 | 2.0 | 0.00 | 0.00 | 0.00 | 77 | 1014.8 |
| 20260903061608 | 78 | 4 | 0.0 | 4.0 | 0.00 | 0.00 | 0.00 | 76 | 1015.0 |
| 20260903060109 | 79 | 328 | 1.0 | 9.0 | 0.00 | 0.00 | 0.00 | 75 | 1015.2 |
| 20260903054607 | 80 | 332 | 4.0 | 12.0 | 0.00 | 0.00 | 0.00 | 78 | 1015.3 |
| 20260903053104 | 81 | 334 | 0.0 | 0.0 | 0.00 | 0.00 | 0.00 | 81 | 1014.4 |
| 20260903051605 | 81 | 0 | 0.0 | 0.0 | 0.00 | 0.00 | 0.00 | 80 | 1013.8 |
| 20260903050104 | 81 | 0 | 0.0 | 4.0 | 0.00 | 0.00 | 0.00 | 79 | 1013.6 |
| 20260903044602 | 81 | 179 | 0.0 | 2.0 | 0.00 | 0.00 | 0.00 | 78 | 1013.4 |
| 20260903043100 | 82 | 0 | 1.0 | 3.0 | 0.00 | 0.00 | 0.00 | 77 | 1013.3 |
| 20260903041617 | 82 | 278 | 1.0 | 3.0 | 0.00 | 0.00 | 0.00 | 76 | 1013.2 |
| 20260903034604 | 83 | 224 | 2.0 | 4.0 | 0.00 | 0.00 | 0.00 | 75 | 1012.9 |
| 20260903033104 | 83 | 219 | 2.0 | 6.0 | 0.00 | 0.00 | 0.00 | 74 | 1012.5 |
| 20260903031601 | 83 | 202 | 0.0 | 5.0 | 0.00 | 0.00 | 0.00 | 74 | 1012.5 |
| 20260903030100 | 83 | 234 | 2.0 | 6.0 | 0.00 | 0.00 | 0.00 | 74 | 1013.0 |
| 20260903024602 | 83 | 221 | 1.0 | 5.0 | 0.00 | 0.00 | 0.00 | 74 | 1013.3 |
| 20260903023122 | 84 | 212 | 1.0 | 5.0 | 0.00 | 0.00 | 0.00 | 74 | 1013.6 |
| 20260903021600 | 84 | 231 | 0.0 | 3.0 | 0.00 | 0.00 | 0.00 | 74 | 1013.6 |
| 20260903020101 | 84 | 217 | 1.0 | 5.0 | 0.00 | 0.00 | 0.00 | 73 | 1013.5 |
| 20260903014604 | 84 | 223 | 1.0 | 3.0 | 0.00 | 0.00 | 0.00 | 74 | 1013.6 |
| 20260903013107 | 84 | 212 | 0.0 | 3.0 | 0.00 | 0.00 | 0.00 | 74 | 1013.6 |
| 20260903011613 | 84 | 0 | 0.0 | 3.0 | 0.00 | 0.00 | 0.00 | 74 | 1013.6 |